Regional Weather Roundup
Issued by NWS

Home | Current Version | Previous Version | Graphics & Text | Print | Product List | Glossary On
Versions: 1 2 3 4 5 6 7 8 9 10 11 12 13 14 15 16 17 18 19 20 21 22 23 24 25 26 27
000
ASUS45 KSLC 221610
RWRUT

UTAH REGIONAL WEATHER ROUNDUP
NATIONAL WEATHER SERVICE SALT LAKE CITY UT
1000 AM MDT TUE APR 22 2014

UTZ001>011-023>025-221700-

NORTHERN UTAH

CITY           SKY/WX    TMP DP  RH WIND       PRES   REMARKS
DUGWAY         PTSUNNY   67  29  23 S22G33    29.72
HILL AFB       CLOUDY    67  30  25 S26G32    29.72F
LOGAN          CLOUDY    57  43  59 N7        29.72F
OGDEN          CLOUDY    69  31  24 S25G33    29.70F
PROVO AIRPORT  CLOUDY    63  39  42 SE8       29.80F
SALT LAKE CITY CLOUDY    69  30  23 S20G28    29.73F
VERNAL         CLOUDY    61  32  33 CALM      29.88F
WENDOVER       MOSUNNY   61  28  29 NE9       29.65F
HEBER CITY     CLOUDY    64  30  27 SW10G21   29.82F
WEST JORDAN    SUNNY     66  37  34 SE20G26   29.76F

$$

UTZ012>022-026-027-221700-

SOUTHERN UTAH

CITY           SKY/WX    TMP DP  RH WIND       PRES   REMARKS
BRYCE CANYON   PTSUNNY   55  31  39 S18G24    30.05F
CEDAR CITY     PTSUNNY   66  31  27 S24G38    29.88F
MILFORD        CLOUDY    68  32  26 S30G41    29.82F
MOAB/CYNLANDS  SUNNY     71  30  21 S15       29.87F
PRICE          CLOUDY    59  30  33 SE5       29.92F
ST GEORGE      CLOUDY    75  34  22 SE12      29.83S
KANAB            N/A     64  32  29 S10       29.98F

$$

REGIONAL REPORTS     COLORADO/ARIZONA

CITY           SKY/WX    TMP DP  RH WIND       PRES   REMARKS
CRAIG, CO        N/A     57  36  45 NW5       29.95F
GRAND JUNCTION PTSUNNY   61  31  32 SE18      29.93F
RIFLE          PTSUNNY   56  35  45 MISG      29.97F
MONTROSE       MOSUNNY   67  31  26 E14       30.01F
CORTEZ         MOSUNNY   68  33  27 SW9       30.07F
PAGE, AZ       PTSUNNY   71  31  22 S7        29.92F
GRAND CANYON   PTSUNNY   61  29  29 SW17G30   30.07F
KINGMAN        PTSUNNY   77  32  19 S23G29    29.89S
FLAGSTAFF      PTSUNNY   60  29  30 SW14      30.11F

$$

REGIONAL REPORTS    NEVADA/IDAHO/WYOMING

CITY           SKY/WX    TMP DP  RH WIND       PRES   REMARKS
LAS VEGAS, NV  CLOUDY    75  24  15 S21G31    29.73S
ELY            CLOUDY    63  15  15 S32G46    29.76F
ELKO           CLOUDY    57  27  31 SW17      29.70F
POCATELLO, ID  MOSUNNY   72  30  21 SE26G35   29.62F
BURLEY         CLOUDY    59  36  42 W18G25    29.67S
EVANSTON, WY     N/A     60  30  32 S18G30    29.86F
ROCK SPRINGS   CLOUDY    60  29  30 CALM      29.90F

$$



USA.gov is the U.S. government's official web portal to all federal, state and local government web resources and services.